Flag for Syria Weather past 2 weeks in Damascus, Syria

Now
75 °F

Sunny.


Feels Like: 77 °F
Forecast: 63 / 101 °F
Wind: 9 mph from Southwest

Location: Damascus Int. Airport

Current Time: Aug 29, 2014 at 9:28:17 AM

Latest Report: Aug 29, 2014 at 9:00 AM


Visibility: 10 mi

Pressure: 29.89 "Hg

Humidity: 61%

Dew point: 61 °F

Location of DamascusLocation

Historic Weather in Damascus — Graph

°F

Damascus temperature yesterday

Maximum temperature yesterday: 97 °F (at 2:00 PM)
Minimum temperature yesterday: 61 °F (at 7:00 AM)
Average temperature yesterday: 80 °F

Past Weeks' High & Low Weather Summary

 TemperatureHumidityPressure
High106 °F (Aug 14, 5:00 PM)100% (Aug 19, 7:00 PM)30.01 "Hg (Aug 19, 7:00 PM)
Low36 °F (Aug 19, 7:00 PM)5% (Aug 21, 4:00 PM)29.65 "Hg (Aug 18, 5:00 PM)
Average83 °F44%29.83 "Hg
* Reported Aug 14 8:00 AM — Aug 29 8:00 AM, Damascus, Weather by CustomWeather, © 2014

Note: Actual official high and low records may vary slightly from our data, if they occured in-between our weather recording intervals... More about our weather records

Advertising

Damascus weather history for previous 24 hours

 ConditionsComfort  
Time TempWeatherWind HumidityBarometerVisibility
8:00 AM
Aug 29
72 °FSunny.13 mph73%29.86 "Hg10 mi
7:00 AM68 °FClear.9 mph78%29.86 "Hg10 mi
6:00 AM68 °FClear.8 mph83%29.83 "Hg10 mi
5:00 AM68 °FClear.16 mph73%29.83 "Hg10 mi
4:00 AM68 °FClear.12 mph69%29.83 "Hg10 mi
3:00 AM72 °FClear.9 mph61%29.83 "Hg10 mi
2:00 AM73 °FClear.15 mph61%29.83 "Hg10 mi
1:00 AM75 °FClear.14 mph61%29.83 "Hg10 mi
12:00 AM75 °FClear.17 mph61%29.83 "Hg10 mi
11:00 PM
Aug 28
77 °FClear.20 mph54%29.83 "Hg10 mi
10:00 PM77 °FClear.9 mph47%29.83 "Hg10 mi
9:00 PM81 °FClear.9 mph51%29.83 "Hg10 mi
8:00 PM82 °FSunny.9 mph42%29.80 "Hg10 mi
7:00 PM88 °FSunny.17 mph35%29.77 "Hg10 mi
6:00 PM93 °FSunny.21 mph23%29.77 "Hg10 mi
5:00 PM95 °FSunny.21 mph22%29.77 "Hg10 mi
4:00 PM97 °FSunny.20 mph20%29.77 "Hg10 mi
3:00 PM97 °FSunny.18 mph20%29.80 "Hg10 mi
2:00 PM97 °FSunny.18 mph20%29.80 "Hg10 mi
1:00 PM95 °FSunny.9 mph23%29.80 "Hg10 mi
12:00 PM90 °FSunny.5 mph26%29.83 "Hg10 mi
11:00 AM84 °FSunny.5 mph35%29.86 "Hg10 mi
10:00 AM81 °FSunny.5 mph39%29.86 "Hg10 mi
9:00 AM73 °FSunny.3 mph44%29.86 "Hg10 mi
Weather by CustomWeather, © 2014

See weather overviewHow to use our weather pages